This demonstration page uses our WeatherBlox Daily Observations layout. Learn more.

Left ArrowRight Arrow

34.02893, -84.19858

Hourly Observations for October 4, 2019

Temp ( °F °C ) Dew Point ( °F °C ) Humidity (%) Winds ( mph kmh ) Pressure ( in mb ) Visibility ( mi km ) Precip ( " mm )
12:53 am 00:53 Clear 73 22.8 64 17.8 74 74 Calm 29.98 1015 10 16 0.00 0.00
1:53 am 01:53 Clear 72 22.2 64 17.8 76 76 Calm 29.98 1015 10 16 0.00 0.00
2:53 am 02:53 Clear 71 21.7 64 17.8 79 79 Calm 29.97 1015 10 16 0.00 0.00
3:53 am 03:53 Clear 69 20.6 64 17.8 84 84 Calm 29.96 1015 10 16 0.00 0.00
4:53 am 04:53 Clear 68 20 64 17.8 87 87 Calm 29.96 1015 10 16 0.00 0.00
5:53 am 05:53 Clear 68 20 65 18.3 90 90 Calm 29.98 1015 10 16 0.00 0.00
6:53 am 06:53 Clear 65 18.3 63 17.2 93 93 Calm 30.00 1016 7 11 0.00 0.00
7:53 am 07:53 Sunny 68 20 63 17.2 84 84 Calm 30.01 1016 10 16 0.00 0.00
8:53 am 08:53 Sunny 78 25.6 64 17.8 62 62 Calm 30.01 1016 10 16 0.00 0.00
9:53 am 09:53 Sunny 83 28.3 63 17.2 51 51 VRB 6 9 30.01 1016 10 16 0.00 0.00
10:53 am 10:53 Sunny 87 30.6 62 16.7 43 43 N 5 7 30.02 1017 10 16 0.00 0.00
11:53 am 11:53 Sunny 91 32.8 61 16.1 37 37 Calm 30.01 1016 10 16 0.00 0.00
12:53 pm 12:53 Sunny 93 33.9 60 15.6 33 33 WNW 7 11 29.99 1016 10 16 0.00 0.00
1:53 pm 13:53 Sunny 94 34.4 59 15 31 31 undefined N/A 29.97 1015 10 16 0.00 0.00
2:53 pm 14:53 Sunny 95 35 58 14.4 29 29 undefined N/A 29.94 1014 10 16 0.00 0.00
3:53 pm 15:53 Sunny 96 35.6 57 13.9 27 27 N 6 9 29.92 1013 10 16 0.00 0.00
4:53 pm 16:53 Sunny 95 35 59 15 30 30 NNW 7 11 29.91 1013 10 16 0.00 0.00
5:53 pm 17:53 Partly Cloudy 94 34.4 60 15.6 32 32 WNW 7 11 29.92 1013 10 16 0.00 0.00
6:53 pm 18:53 Sunny 90 32.2 60 15.6 37 37 NNW 7 11 29.93 1013 10 16 0.00 0.00
7:53 pm 19:53 Mostly Cloudy 86 30 60 15.6 42 42 N 6 9 29.93 1014 10 16 0.00 0.00
8:53 pm 20:53 Clear 81 27.2 61 16.1 51 51 N 7 11 29.94 1014 10 16 0.00 0.00
9:53 pm 21:53 Clear 80 26.7 63 17.2 56 56 N 8 13 29.95 1014 10 16 0.00 0.00
10:53 pm 22:53 Clear 78 25.6 63 17.2 60 60 NNE 6 9 29.96 1015 10 16 0.00 0.00
11:53 pm 23:53 Clear 76 24.4 64 17.8 67 67 N 3 6 29.96 1015 10 16 0.00 0.00

Powered by AerisWeather